Location: Waco, TX
(31.5480°N, 97.1670°W)
Time: 13:26:52
(UTC-05:00)

ISS - Pass Details

Date: 04 May 2021
Orbit: 417 x 422 km, 51.6° (Epoch: 15 May)

Event Time Altitude Azimuth Distance (km) Brightness Sun altitude
Rises 08:20:08 0° 334° (NNW) 2,370 -0.1 19.8°
Reaches altitude 10° 08:23:28 10° 9° (N) 1,504 -0.7 20.5°
Maximum altitude 08:24:42 12° 31° (NNE) 1,410 -0.4 20.8°
Drops below altitude 10° 08:25:57 10° 53° (NE) 1,502 0.2 21.0°
Sets 08:29:15 0° 88° (E) 2,364 1.6 21.7°
